Wind_Speed
6 7 7 7 7 7 7 8 8 9 11 11 12 15 17 20 20 6 4 6 3 4 7 6 7 10 9 13 9 13 14 8 17 15 12 10 13 18 20 18 20 22 21 16 13
6 7 8 8 7 8 8 9 9 9 11 11 12 14 16 21 13 13 4 4 5 4 9 9 8 7 11 4 4 9 5 16 7 9 11 13 15 12 16 16 15 17 17 18 15
6 7 7 8 8 8 9 10 10 10 10 11 12 14 17 18 13 10 2 7 7 6 10 8 7 11 7 6 3 8 11 9 8 12 13 12 13 14 14 12 12 10 15 17 18
6 6 7 7 7 8 9 10 9 9 10 10 11 13 19 7 0 7 2 6 7 6 9 8 10 14 6 6 7 13 9 8 11 4 9 15 16 21 22 11 13 15 16 18 17
5 6 6 6 7 7 9 8 9 9 9 11 11 13 9 11 11 5 6 7 5 6 9 7 5 4 4 8 12 11 11 13 14 15 17 18 18 14 16 15 12 15 16 14 15
5 5 6 6 7 8 9 9 9 9 9 11 10 12 8 11 8 6 7 6 7 7 5 6 6 9 5 0 6 9 10 12 11 14 14 15 12 6 9 12 11 13 14 13 16
5 5 4 5 5 5 6 6 7 8 9 9 9 8 11 6 5 7 8 8 3 5 9 5 7 11 3 8 11 14 13 13 15 11 15 18 13 10 8 11 12 12 13 15 17
5 4 5 5 4 5 5 5 5 6 7 7 9 6 2 3 4 8 11 9 6 6 6 5 5 7 6 10 11 15 13 10 13 10 6 7 10 12 10 12 13 11 13 12 14
4 5 5 5 5 5 6 6 7 7 7 7 6 8 6 8 9 12 13 9 8 7 6 5 10 8 5 14 12 8 8 7 10 2 2 4 10 7 11 9 14 12 13 11 12
4 5 5 5 5 5 6 7 7 6 6 6 13 8 7 6 9 9 10 7 9 8 10 9 9 11 13 14 2 11 11 5 10 9 5 6 9 10 7 8 11 13 11 11 10
4 4 4 4 4 4 5 3 5 6 11 10 4 1 7 9 9 11 11 11 13 10 15 16 11 6 8 12 8 7 10 5 5 5 4 5 7 8 8 11 11 7 9 8 8
4 3 4 4 4 3 6 5 9 6 6 3 2 2 2 1 9 7 6 9 9 14 6 11 8 7 6 7 6 6 8 14 7 3 5 8 8 6 7 8 14 8 7 11 12
5 3 4 4 4 6 8 5 7 5 6 8 4 4 6 8 4 8 10 9 10 8 10 7 13 3 3 3 10 10 16 14 10 3 11 3 14 14 10 10 10 8 8 7 9
5 4 5 5 5 5 4 4 7 4 5 9 11 4 8 3 5 2 2 8 5 6 5 6 5 3 7 4 9 6 7 9 9 9 13 19 12 18 14 10 7 5 7 3 8
5 5 7 10 12 8 4 7 6 4 3 11 10 7 2 6 11 7 1 7 6 4 6 5 6 3 1 9 10 10 12 14 16 14 17 8 5 7 13 8 7 5 6 5 9
3 6 7 6 8 4 5 7 6 8 4 9 7 10 12 6 2 5 4 3 4 4 8 8 4 5 8 4 4 7 13 17 16 8 6 8 8 14 10 12 5 10 9 8 8
5 7 8 4 3 4 8 9 8 5 6 8 11 9 10 6 3 5 4 2 5 4 9 5 6 6 7 13 3 9 15 12 13 7 9 12 2 8 13 16 11 13 10 9 5
9 7 4 4 7 8 11 9 7 3 2 4 2 7 6 5 5 2 4 7 5 11 6 9 5 8 5 7 10 19 8 9 14 15 15 12 6 5 9 10 13 12 7 6 3
6 5 8 1 5 7 8 10 3 6 2 5 8 11 8 9 5 7 4 10 6 9 11 6 6 4 4 7 8 13 12 16 11 19 14 8 11 10 9 7 4 4 6 1 4
8 9 4 5 5 9 8 6 5 3 3 6 7 8 3 5 8 4 4 5 3 6 6 6 12 4 7 7 2 13 9 10 8 7 9 17 10 7 10 6 4 1 1 4 1
10 5 6 3 5 7 8 6 7 4 2 4 2 1 4 2 9 4 7 8 7 6 7 11 6 1 9 8 11 12 8 6 4 7 8 9 7 9 9 11 9 6 4 10 9
7 3 4 2 7 5 2 4 5 6 7 5 7 8 7 6 6 4 9 10 7 7 4 6 6 8 6 7 4 4 8 6 8 7 7 11 5 4 9 12 8 7 7 8 9
4 3 2 5 4 6 6 7 3 6 5 3 3 6 4 3 3 2 6 7 7 7 8 7 3 9 7 7 2 6 7 8 4 7 5 10 6 7 8 4 10 11 12 9 10
5 3 3 1 3 1 10 9 8 6 7 7 3 1 2 1 1 2 8 4 8 10 5 3 3 5 8 8 4 4 6 9 7 7 11 6 6 7 6 10 6 8 8 7 10
2 3 4 3 4 3 2 5 9 6 3 2 2 4 4 2 2 3 5 8 7 4 5 6 1 1 5 4 4 3 6 7 10 8 6 10 11 9 10 10 9 10 5 10 9
4 4 3 5 2 4 1 1 6 3 5 5 3 3 5 7 8 10 5 2 4 5 4 2 2 7 6 3 1 1 3 5 6 6 8 10 6 4 6 7 8 6 10 10 13
5 0 5 3 3 6 5 2 5 7 7 8 3 1 8 7 7 6 4 4 5 6 5 4 1 6 8 3 6 2 9 10 10 9 9 10 10 8 5 2 6 6 2 6 11
Wind_Direction
290 284 281 282 286 289 291 290 286 290 293 304 312 316 320 319 320 255 208 100 173 205 210 234 231 235 235 254 248 264 276 85 33 50 100 133 80 65 61 65 49 47 73 108 136
290 283 282 282 283 283 283 280 282 286 295 306 313 317 320 320 298 229 82 178 200 206 238 234 225 204 219 218 251 295 33 60 15 53 65 48 107 131 113 93 72 75 73 76 68
293 290 288 284 281 281 278 276 281 288 298 305 312 315 316 321 266 82 128 208 219 234 274 289 271 248 215 223 27 21 32 58 87 74 81 72 62 38 100 54 57 77 61 66 72
295 296 292 289 283 277 274 274 281 288 296 304 309 315 314 276 50 82 107 182 204 245 274 258 225 230 176 117 139 84 51 89 92 63 81 75 75 57 59 79 75 76 73 77 73
308 297 292 281 273 271 270 274 277 288 296 298 307 315 316 229 77 106 128 152 202 251 270 303 302 283 149 124 108 101 93 93 85 75 71 75 70 81 77 81 82 90 85 81 84
321 303 296 284 273 265 266 269 278 284 287 292 304 309 254 254 105 126 156 182 240 245 286 311 16 349 43 129 300 122 123 120 123 110 97 96 86 86 96 102 91 85 86 91 84
323 314 308 281 272 274 270 277 277 276 280 288 292 299 263 72 151 167 183 210 222 263 302 37 331 278 84 105 132 144 146 156 143 140 137 127 78 91 107 108 94 93 95 73 74
329 317 298 290 283 273 268 265 271 279 278 279 280 275 328 89 195 198 194 211 216 256 276 307 284 287 237 117 175 200 191 148 137 154 140 234 108 128 145 130 118 111 89 83 73
330 298 304 291 281 271 266 267 262 260 264 267 270 224 124 163 189 178 192 207 201 234 257 286 241 227 164 191 200 306 197 190 104 116 314 303 110 156 163 155 124 116 101 99 95
331 303 297 292 284 283 264 239 232 231 256 250 267 261 195 87 119 163 194 236 232 230 229 222 213 201 224 224 174 180 260 67 36 63 53 63 112 135 162 108 113 116 111 97 94
338 290 289 297 293 299 161 178 204 201 225 297 70 73 110 109 153 201 190 212 239 237 248 202 211 227 32 27 356 7 350 27 105 104 298 110 143 145 136 119 135 126 114 123 132
320 269 274 280 288 256 239 267 29 348 238 196 152 236 146 212 154 146 192 229 197 230 233 222 92 61 33 13 320 301 301 10 134 158 262 170 155 171 142 155 115 131 130 160 134
303 247 243 265 252 244 264 22 326 312 251 167 161 167 139 260 83 120 236 211 219 190 224 32 94 89 295 249 326 69 335 358 349 325 241 228 198 192 157 138 132 144 154 112 150
286 223 210 228 224 203 194 327 324 295 220 144 179 124 183 217 99 346 335 306 275 96 87 81 108 259 260 49 343 352 328 319 291 268 294 208 291 164 169 155 159 139 109 102 98
265 212 204 215 306 236 11 316 330 258 188 179 145 119 219 241 138 130 331 244 280 136 269 45 176 253 277 16 337 5 332 309 298 268 296 40 61 128 111 154 184 124 97 123 80
221 194 189 219 244 293 289 307 273 238 108 157 156 202 198 170 196 126 159 334 339 279 339 103 39 5 9 284 322 308 281 271 256 269 255 149 247 51 41 36 121 107 109 83 69
158 173 193 246 296 293 294 261 239 274 148 149 177 202 170 131 157 182 151 218 316 194 3 228 148 110 329 311 212 290 334 318 314 329 311 210 298 43 41 35 70 114 112 114 116
135 140 192 252 285 294 275 244 270 83 124 34 232 212 155 161 116 160 232 164 43 327 278 248 180 300 25 13 334 296 339 303 328 313 309 329 58 79 47 59 109 136 145 101 32
164 184 204 292 296 291 260 237 66 72 351 180 200 188 160 174 281 206 358 23 25 356 327 307 63 148 41 350 350 347 332 333 287 271 275 108 95 106 61 65 67 119 137 132 241
254 214 97 309 295 268 249 7 92 73 279 235 246 299 90 105 229 227 127 35 359 11 337 339 303 101 49 299 175 342 313 332 328 305 321 93 80 46 35 50 36 36 335 22 259
257 228 66 304 268 238 253 110 110 88 354 332 48 146 23 48 333 19 52 84 12 351 329 358 298 245 225 39 359 341 11 336 319 329 318 323 82 47 20 37 29 35 21 36 36
276 220 54 271 224 247 166 100 307 111 109 80 51 35 26 347 353 338 52 19 9 330 11 46 312 297 22 60 356 45 7 359 335 329 3 295 78 65 29 45 24 76 31 33 26
286 55 124 259 251 192 127 128 88 119 27 62 81 39 18 36 293 27 100 40 25 26 19 4 66 301 158 168 215 59 11 360 311 261 307 338 86 66 53 80 36 10 57 50 9
285 183 128 219 321 138 175 166 124 88 83 59 93 30 228 48 8 175 130 71 70 72 336 340 305 297 345 43 340 57 17 5 6 355 339 43 16 87 5 14 72 57 47 1 16
329 52 4 82 73 3 233 191 153 144 127 13 121 22 2 259 249 135 114 147 130 153 59 352 335 322 47 41 30 49 34 32 10 16 342 354 35 25 11 11 22 27 359 12 25
345 327 189 86 162 183 61 2 93 128 327 99 22 29 30 45 1 356 330 272 128 142 62 345 86 282 150 115 30 89 93 0 25 358 348 354 37 9 44 340 28 17 14 349 28
11 7 277 169 166 245 55 24 97 112 31 52 45 139 75 33 7 11 4 16 21 331 73 332 207 267 183 91 246 36 22 5 355 355 12 353 3 358 60 87 44 71 323 2 44
Height
810 809 809 808 807 807 807 806 805 803 801 799 798 795 793 789 785 782 775 778 778 778 779 775 775 770 767 758 754 744 760 762 762 762 768 755 769 766 768 784 790 787 791 807 812
809 808 807 807 806 806 805 804 804 802 800 799 797 795 792 788 784 772 778 778 779 778 777 770 763 763 759 755 750 752 755 770 761 756 766 759 766 777 784 800 813 812 810 815 819
807 806 805 805 805 804 804 803 802 801 799 798 796 794 791 788 782 770 777 778 778 777 776 771 767 759 756 750 755 759 771 764 764 764 768 776 776 772 790 824 826 830 832 833 833
806 805 804 803 803 803 802 802 801 799 798 797 795 793 789 789 785 775 777 778 778 777 775 765 761 757 757 766 759 776 768 767 772 772 773 790 799 821 818 838 837 837 837 838 842
804 804 803 803 802 801 801 800 799 798 797 796 794 792 789 779 771 777 778 778 778 777 770 760 755 755 764 767 765 775 777 774 777 782 787 796 814 828 838 841 840 841 842 844 846
803 803 802 801 800 800 799 799 797 797 796 795 794 792 789 780 775 778 779 779 777 774 766 762 760 755 761 764 766 771 775 778 777 786 793 806 818 823 842 843 844 844 847 848 850
802 801 800 800 799 798 798 797 796 796 794 794 793 792 783 772 775 777 778 776 775 773 768 767 766 761 760 772 764 772 783 777 778 785 799 791 823 843 840 842 845 847 847 853 856
801 800 799 798 797 797 796 796 795 794 794 793 792 792 773 774 774 775 775 775 775 773 772 770 768 760 759 762 772 775 771 788 777 780 780 792 830 835 837 840 848 849 854 858 861
801 799 798 798 796 796 795 794 794 793 793 792 791 786 773 773 771 772 772 770 771 772 771 772 768 762 766 777 782 780 839 784 784 774 781 787 825 828 826 831 845 849 859 861 864
800 798 797 797 796 795 794 793 792 793 791 792 789 787 766 766 768 772 772 772 770 767 767 770 766 772 768 770 813 828 801 780 788 787 787 803 820 821 824 832 843 855 858 860 863
798 798 797 796 795 794 793 794 794 792 785 774 768 765 761 765 769 770 769 770 767 767 774 762 775 788 768 765 767 771 778 787 789 789 794 805 814 820 823 836 845 848 855 861 864
798 797 796 796 795 794 792 780 782 781 778 770 770 767 767 765 766 764 767 769 768 773 760 765 780 769 765 767 773 774 778 827 790 788 797 799 811 820 819 820 838 848 852 857 859
797 796 795 795 795 793 787 785 784 782 777 773 766 763 763 761 763 764 760 757 762 771 765 773 775 770 775 776 782 782 789 789 793 789 789 798 811 824 822 827 838 845 848 852 855
794 794 795 795 797 785 783 785 782 782 785 789 775 768 765 760 773 762 760 758 756 769 767 775 771 778 780 784 787 798 784 785 789 799 803 789 809 812 831 843 846 844 849 854 854
793 793 794 794 791 782 785 783 782 783 817 776 769 761 760 764 764 766 760 757 770 772 774 794 781 782 786 793 786 793 785 788 784 787 790 785 849 815 838 856 854 846 855 857 859
792 792 793 794 790 785 784 783 783 798 822 784 767 773 770 765 767 762 763 759 760 772 770 777 770 780 785 785 786 785 787 779 772 784 825 806 821 840 832 834 841 855 859 862 864
792 792 792 790 783 785 784 780 795 796 773 788 780 771 768 780 779 771 778 782 791 800 820 788 786 782 782 791 780 785 794 815 805 802 807 798 799 856 838 836 840 855 864 865 867
793 793 792 791 788 786 783 784 806 784 781 770 772 771 783 781 784 784 786 789 783 786 791 797 833 798 789 798 808 800 802 816 841 831 812 776 834 863 846 845 851 857 858 861 869
794 792 789 789 788 787 781 793 790 783 780 779 775 784 786 783 784 787 791 794 797 791 810 805 811 793 796 793 800 810 811 800 820 801 798 814 847 844 847 851 853 855 861 866 861
793 784 785 788 787 785 783 804 788 781 779 778 790 784 794 787 791 788 794 799 802 795 788 796 818 797 798 796 792 804 800 822 806 832 834 824 843 857 854 855 854 858 858 858 861
793 780 785 786 785 779 787 785 785 780 778 784 790 796 793 797 792 794 800 806 803 800 792 798 806 808 797 817 824 818 815 817 816 820 833 827 855 845 846 846 852 855 856 856 862
786 784 784 785 785 773 782 784 796 783 778 787 788 795 801 802 804 803 810 815 807 802 810 809 817 826 813 812 813 815 826 823 834 837 819 821 864 844 843 848 852 855 860 862 864
783 781 784 784 790 785 787 791 786 789 790 792 800 798 797 807 818 809 812 813 808 813 822 816 824 839 826 827 819 827 825 822 823 825 839 839 858 837 846 849 854 857 863 870 872
788 789 784 782 779 783 793 795 804 792 797 794 801 797 803 808 806 816 818 819 816 820 829 820 829 835 836 837 827 834 834 829 831 835 838 849 843 854 848 848 853 858 867 867 870
794 803 801 797 795 791 791 792 801 808 798 796 805 805 810 818 813 814 812 821 819 828 823 824 836 829 831 831 830 835 837 838 840 842 849 842 851 854 853 854 857 863 867 870 875
799 800 798 803 802 798 808 801 802 809 804 810 811 811 809 821 821 821 815 814 818 817 824 827 840 831 840 835 835 839 837 837 838 840 840 843 856 855 852 855 861 867 873 872 873
815 811 807 816 804 800 807 807 806 807 809 806 810 813 822 828 820 818 816 818 819 824 829 833 840 837 868 837 839 857 846 843 844 839 848 857 853 848 856 862 868 875 878 875 884